Regional Weather Roundup
Issued by NWS

Home | Current Version | Previous Version | Text Only | Print | Product List | Glossary Off
Versions: 1 2 3 4 5 6 7 8 9 10 11 12 13 14 15 16 17 18 19 20 21 22 23 24 25 26 27 28 29 30 31 32 33 34 35 36 37 38 39 40 41 42 43 44 45 46 47 48 49 50

000
ASUS45 KABQ 240210
RWRNM
NEW MEXICO REGIONAL WEATHER ROUNDUP
NATIONAL WEATHER SERVICE ALBUQUERQUE NM
800 PM MDT SAT MAY 23 2015

NOTE: "FAIR" MEANS FEW OR NO CLOUDS BELOW 12,000 FEET AGL WITH NO
       SIGNIFICANT WEATHER OR OBSTRUCTIONS TO VISION.

      THIS PRODUCT IS RELEASED AS TWO VERSIONS.  ONE VERSION NEAR
      THE TOP OF THE HOUR CONTAINING PRELIMINARY DATA FROM ALBUQUERQUE
      AND OTHER STATIONS.  A FINAL VERSION WITH ADDITIONAL DATA IS
      ISSUED ABOUT 10 MINUTES AFTER THE HOUR.

NMZ501-503-504-510>518-240300-
NORTHWEST PLATEAU/NORTHCENTRAL MOUNTAINS

CITY           SKY/WX    TMP DP  RH WIND       PRES   REMARKS
FARMINGTON     LGT RAIN  48  42  80 NW6       30.00S
LOS ALAMOS     CLEAR     56  21  26 W10       30.01R
SANTA FE       CLEAR     59  22  24 W6        29.95R
TAOS           PTCLDY    54  28  37 SE8       30.00R
ANGEL FIRE     FAIR      46  28  50 SW15      30.05S

$$
NMZ402-403-502-505>509-240300-
WESTCENTRAL MOUNTAINS/SOUTHWEST MOUNTAINS

CITY           SKY/WX    TMP DP  RH WIND       PRES   REMARKS
GALLUP         CLOUDY    57  27  31 W15       30.02R
GRANTS         CLEAR     56  24  28 W10       30.02R
SILVER CITY    CLEAR     64  14  14 W15G25    30.00R

$$
NMZ407-409-411-412-240300-
SOUTHERN DESERTS

CITY           SKY/WX    TMP DP  RH WIND       PRES   REMARKS
LORDSBURG      FAIR      70  19  14 W15G28    29.94R
DEMING         CLEAR     71  18  13 W14       29.92R
LAS CRUCES     CLEAR     71  19  14 W14       29.92R
HOLLOMAN AFB   CLEAR     73  21  14 SW8       29.87R
ALAMOGORDO     CLEAR     72  16  12 SW13      29.89R
T OR C         CLEAR     71  18  13 SW15      29.89R

$$
NMZ519>523-240300-
CENTRAL VALLEYS/CENTRAL HIGHLANDS

CITY           SKY/WX    TMP DP  RH WIND       PRES   REMARKS
ALBUQUERQUE    MOCLDY    69  18  14 NW10      29.92R
DOUBLE EAGLE   PTCLDY    64  25  22 W10       29.95R
MORIARTY ARPT  FAIR      58  26  28 SW8       29.98R
CLINES CORNERS CLEAR     56  23  27 W14       29.98R
BELEN          FAIR      67  19  16 N7        29.91R
SOCORRO        FAIR      70  18  14 W13G18    29.87R

$$
NMZ524>526-539-540-240300-
SOUTHCENTRAL MOUNTAINS

CITY           SKY/WX    TMP DP  RH WIND       PRES   REMARKS
RUIDOSO        CLEAR     57  14  18 SW13      30.03S

$$
NMZ527>531-240300-
NORTHEAST HIGHLANDS/NORTHEAST PLAINS

CITY           SKY/WX    TMP DP  RH WIND       PRES   REMARKS
LAS VEGAS      PTCLDY    57  25  29 SW5       29.98R
RATON          PTCLDY    59  27  29 W15       29.91R
CLAYTON        MOCLDY    60  57  89 SE15      29.86F

$$
NMZ532>537-240300-
EASTCENTRAL PLAINS

CITY           SKY/WX    TMP DP  RH WIND       PRES   REMARKS
TUCUMCARI      CLOUDY    66  50  56 SW6       29.81F
CANNON AFB     CLOUDY    67  41  39 SW6       29.84F
CLOVIS AIRPORT CLOUDY    63  45  51 S12         N/A

$$
NMZ028-029-538-240300-
SOUTHEAST PLAINS

CITY           SKY/WX    TMP DP  RH WIND       PRES   REMARKS
ROSWELL        MOCLDY    76  22  13 W13       29.81R
ARTESIA        MOCLDY    75  19  12 W14       29.83R
CARLSBAD       PTCLDY    69  52  54 S13       29.82R
HOBBS          CLOUDY    63  54  72 S6        29.88S


$$


USA.gov is the U.S. government's official web portal to all federal, state and local government web resources and services.